Time,TemperatureF,DewpointF,PressureIn,WindDirection,WindDirectionDegrees,WindSpeedMPH,WindSpeedGustMPH,Humidity,HourlyPrecipIn,Conditions,Clouds,dailyrainin,SoftwareType,DateUTC
2013-10-21 00:01:00,55.1,53.0,30.02,West,270,0.0,0.0,92,0.00,,,0.00,weatherlink.com 1.10,2013-10-21 05:01:00,
2013-10-21 00:16:00,55.3,53.0,30.01,West,269,0.0,0.0,91,0.00,,,0.00,weatherlink.com 1.10,2013-10-21 05:16:00,
2013-10-21 00:31:00,55.8,53.0,30.01,West,270,0.0,0.0,90,0.00,,,0.00,weatherlink.com 1.10,2013-10-21 05:31:00,
2013-10-21 00:46:00,55.7,53.0,30.01,West,270,0.0,0.0,90,0.00,,,0.00,weatherlink.com 1.10,2013-10-21 05:46:00,
2013-10-21 01:01:00,55.9,53.0,30.01,West,269,0.0,0.0,89,0.00,,,0.00,weatherlink.com 1.10,2013-10-21 06:01:00,
2013-10-21 01:16:00,55.9,53.0,30.01,West,270,0.0,0.0,89,0.00,,,0.00,weatherlink.com 1.10,2013-10-21 06:16:00,
2013-10-21 01:31:00,56.0,53.0,30.01,West,271,0.0,0.0,90,0.00,,,0.00,weatherlink.com 1.10,2013-10-21 06:31:00,
2013-10-21 01:46:00,56.0,53.0,30.01,West,271,0.0,0.0,89,0.00,,,0.00,weatherlink.com 1.10,2013-10-21 06:46:00,
2013-10-21 02:01:00,55.9,53.0,30.01,West,271,0.0,0.0,89,0.00,,,0.00,weatherlink.com 1.10,2013-10-21 07:01:00,
2013-10-21 02:16:00,55.8,53.0,30.01,ESE,120,0.0,0.0,89,0.00,,,0.00,weatherlink.com 1.10,2013-10-21 07:16:00,
2013-10-21 02:31:00,55.8,53.0,30.01,ESE,120,0.0,0.0,89,0.00,,,0.00,weatherlink.com 1.10,2013-10-21 07:31:00,
2013-10-21 02:46:00,55.7,53.0,30.02,ESE,120,0.0,0.0,90,0.00,,,0.00,weatherlink.com 1.10,2013-10-21 07:46:00,
2013-10-21 03:01:00,55.6,53.0,30.02,ESE,120,0.0,0.0,90,0.00,,,0.00,weatherlink.com 1.10,2013-10-21 08:01:00,
2013-10-21 03:16:00,55.7,53.0,30.01,ESE,120,0.0,0.0,91,0.00,,,0.00,weatherlink.com 1.10,2013-10-21 08:16:00,
2013-10-21 03:31:00,55.6,53.0,30.01,ESE,120,0.0,0.0,91,0.00,,,0.00,weatherlink.com 1.10,2013-10-21 08:31:00,
2013-10-21 03:46:00,55.5,53.0,30.01,ESE,120,0.0,0.0,91,0.00,,,0.00,weatherlink.com 1.10,2013-10-21 08:46:00,
2013-10-21 04:01:00,55.3,53.0,30.01,ESE,120,0.0,0.0,92,0.00,,,0.00,weatherlink.com 1.10,2013-10-21 09:01:00,
2013-10-21 04:16:00,55.3,53.0,30.01,SSE,159,0.0,0.0,92,0.00,,,0.00,weatherlink.com 1.10,2013-10-21 09:16:00,
2013-10-21 04:31:00,54.7,53.0,30.02,SSE,159,0.0,0.0,92,0.00,,,0.00,weatherlink.com 1.10,2013-10-21 09:31:00,
2013-10-21 04:46:00,54.1,52.0,30.01,SSE,159,0.0,0.0,93,0.00,,,0.00,weatherlink.com 1.10,2013-10-21 09:46:00,
2013-10-21 05:01:00,53.7,52.0,30.02,SSE,159,0.0,0.0,94,0.00,,,0.00,weatherlink.com 1.10,2013-10-21 10:01:00,
2013-10-21 05:17:00,53.9,52.0,30.02,South,184,0.0,0.0,94,0.00,,,0.00,weatherlink.com 1.10,2013-10-21 10:17:00,
2013-10-21 05:32:00,54.0,52.0,30.03,South,184,0.0,0.0,93,0.00,,,0.00,weatherlink.com 1.10,2013-10-21 10:32:00,
2013-10-21 05:47:00,54.3,52.0,30.02,South,184,0.0,0.0,93,0.00,,,0.00,weatherlink.com 1.10,2013-10-21 10:47:00,
2013-10-21 06:02:00,54.2,52.0,30.03,South,184,0.0,0.0,92,0.00,,,0.00,weatherlink.com 1.10,2013-10-21 11:02:00,
2013-10-21 06:17:00,54.1,52.0,30.04,South,185,0.0,0.0,93,0.00,,,0.00,weatherlink.com 1.10,2013-10-21 11:17:00,
2013-10-21 06:32:00,54.1,52.0,30.04,South,184,0.0,0.0,92,0.00,,,0.00,weatherlink.com 1.10,2013-10-21 11:32:00,
2013-10-21 06:47:00,53.9,52.0,30.05,SW,222,0.0,1.0,93,0.00,,,0.00,weatherlink.com 1.10,2013-10-21 11:47:00,
2013-10-21 07:02:00,53.8,52.0,30.05,SW,222,0.0,0.0,93,0.00,,,0.00,weatherlink.com 1.10,2013-10-21 12:02:00,
2013-10-21 07:17:00,53.8,52.0,30.04,SW,222,0.0,0.0,93,0.00,,,0.00,weatherlink.com 1.10,2013-10-21 12:17:00,
2013-10-21 07:32:00,54.1,52.0,30.04,SW,222,0.0,0.0,92,0.00,,,0.00,weatherlink.com 1.10,2013-10-21 12:32:00,
2013-10-21 07:47:00,54.9,53.0,30.05,SW,222,0.0,0.0,92,0.00,,,0.00,weatherlink.com 1.10,2013-10-21 12:47:00,
2013-10-21 08:02:00,55.9,53.0,30.06,WSW,240,0.0,0.0,89,0.00,,,0.00,weatherlink.com 1.10,2013-10-21 13:02:00,
2013-10-21 08:17:00,56.7,53.0,30.06,WSW,240,0.0,1.0,88,0.00,,,0.00,weatherlink.com 1.10,2013-10-21 13:17:00,
2013-10-21 08:32:00,57.2,54.0,30.06,West,269,0.0,1.0,88,0.00,,,0.00,weatherlink.com 1.10,2013-10-21 13:32:00,
2013-10-21 08:47:00,58.0,54.0,30.06,West,273,0.0,0.0,87,0.00,,,0.00,weatherlink.com 1.10,2013-10-21 13:47:00,
2013-10-21 09:02:00,58.9,54.0,30.06,West,271,0.0,1.0,85,0.00,,,0.00,weatherlink.com 1.10,2013-10-21 14:02:00,
2013-10-21 09:17:00,59.8,55.0,30.06,SW,236,0.0,1.0,83,0.00,,,0.00,weatherlink.com 1.10,2013-10-21 14:17:00,
2013-10-21 09:32:00,60.3,55.0,30.07,WNW,291,1.0,2.0,83,0.00,,,0.00,weatherlink.com 1.10,2013-10-21 14:32:00,
2013-10-21 09:47:00,61.3,56.0,30.07,ESE,102,0.0,1.0,82,0.00,,,0.00,weatherlink.com 1.10,2013-10-21 14:47:00,
2013-10-21 10:02:00,62.0,56.0,30.07,ESE,108,0.0,1.0,80,0.00,,,0.00,weatherlink.com 1.10,2013-10-21 15:02:00,
2013-10-21 10:17:00,62.8,56.0,30.06,East,93,0.0,3.0,79,0.00,,,0.00,weatherlink.com 1.10,2013-10-21 15:17:00,
2013-10-21 10:32:00,63.6,57.0,30.07,SE,136,1.0,2.0,78,0.00,,,0.00,weatherlink.com 1.10,2013-10-21 15:32:00,
2013-10-21 10:47:00,64.1,56.0,30.06,ESE,108,2.0,4.0,76,0.00,,,0.00,weatherlink.com 1.10,2013-10-21 15:47:00,
2013-10-21 11:02:00,65.4,58.0,30.06,SE,125,0.0,2.0,78,0.00,,,0.00,weatherlink.com 1.10,2013-10-21 16:02:00,
2013-10-21 11:17:00,65.7,58.0,30.06,East,81,2.0,4.0,77,0.00,,,0.00,weatherlink.com 1.10,2013-10-21 16:17:00,
2013-10-21 11:32:00,66.6,58.0,30.06,ESE,105,0.0,1.0,75,0.00,,,0.00,weatherlink.com 1.10,2013-10-21 16:32:00,
2013-10-21 11:47:00,67.4,59.0,30.06,West,259,1.0,2.0,75,0.00,,,0.00,weatherlink.com 1.10,2013-10-21 16:47:00,
2013-10-21 12:02:00,69.0,60.0,30.05,WNW,293,2.0,5.0,74,0.00,,,0.00,weatherlink.com 1.10,2013-10-21 17:02:00,
2013-10-21 12:18:00,70.7,60.0,30.04,SW,235,1.0,3.0,69,0.00,,,0.00,weatherlink.com 1.10,2013-10-21 17:18:00,
2013-10-21 12:33:00,71.4,61.0,30.04,SE,143,1.0,2.0,69,0.00,,,0.00,weatherlink.com 1.10,2013-10-21 17:33:00,
2013-10-21 12:48:00,71.5,61.0,30.03,NW,324,0.0,4.0,69,0.00,,,0.00,weatherlink.com 1.10,2013-10-21 17:48:00,
2013-10-21 13:03:00,72.3,60.0,30.03,NNW,343,2.0,2.0,66,0.00,,,0.00,weatherlink.com 1.10,2013-10-21 18:03:00,
2013-10-21 13:18:00,72.5,61.0,30.03,East,98,2.0,5.0,68,0.00,,,0.00,weatherlink.com 1.10,2013-10-21 18:18:00,
2013-10-21 13:33:00,72.3,61.0,30.02,East,86,0.0,3.0,68,0.00,,,0.00,weatherlink.com 1.10,2013-10-21 18:33:00,
2013-10-21 13:48:00,73.1,61.0,30.01,SW,231,0.0,4.0,66,0.00,,,0.00,weatherlink.com 1.10,2013-10-21 18:48:00,
2013-10-21 14:03:00,73.0,62.0,30.01,SSW,208,0.0,2.0,69,0.00,,,0.00,weatherlink.com 1.10,2013-10-21 19:03:00,
2013-10-21 14:18:00,72.7,62.0,30.00,WSW,243,0.0,3.0,69,0.00,,,0.00,weatherlink.com 1.10,2013-10-21 19:18:00,
2013-10-21 14:33:00,72.9,62.0,30.00,West,276,0.0,3.0,68,0.00,,,0.00,weatherlink.com 1.10,2013-10-21 19:33:00,
2013-10-21 14:48:00,73.3,62.0,30.00,West,269,0.0,3.0,67,0.00,,,0.00,weatherlink.com 1.10,2013-10-21 19:48:00,
2013-10-21 15:03:00,73.0,61.0,29.99,East,87,1.0,3.0,67,0.00,,,0.00,weatherlink.com 1.10,2013-10-21 20:03:00,
2013-10-21 15:18:00,72.4,62.0,30.00,West,259,1.0,1.0,70,0.00,,,0.00,weatherlink.com 1.10,2013-10-21 20:18:00,
2013-10-21 15:33:00,71.1,62.0,29.99,West,273,0.0,1.0,74,0.00,,,0.00,weatherlink.com 1.10,2013-10-21 20:33:00,
2013-10-21 15:48:00,70.3,62.0,29.99,West,275,0.0,2.0,76,0.00,,,0.00,weatherlink.com 1.10,2013-10-21 20:48:00,
2013-10-21 16:03:00,69.6,63.0,29.98,West,280,1.0,1.0,80,0.00,,,0.00,weatherlink.com 1.10,2013-10-21 21:03:00,
2013-10-21 16:18:00,68.9,63.0,29.99,West,264,1.0,1.0,82,0.00,,,0.00,weatherlink.com 1.10,2013-10-21 21:18:00,
2013-10-21 16:33:00,68.5,63.0,29.99,West,274,0.0,1.0,83,0.00,,,0.00,weatherlink.com 1.10,2013-10-21 21:33:00,
2013-10-21 16:48:00,67.9,62.0,29.99,West,281,1.0,4.0,82,0.00,,,0.00,weatherlink.com 1.10,2013-10-21 21:48:00,
2013-10-21 17:03:00,67.2,62.0,29.99,West,275,0.0,1.0,84,0.00,,,0.00,weatherlink.com 1.10,2013-10-21 22:03:00,
2013-10-21 17:18:00,66.9,63.0,30.00,WSW,250,0.0,0.0,86,0.00,,,0.00,weatherlink.com 1.10,2013-10-21 22:18:00,
2013-10-21 17:33:00,66.4,62.0,30.00,NW,313,0.0,2.0,86,0.00,,,0.00,weatherlink.com 1.10,2013-10-21 22:33:00,
2013-10-21 17:48:00,65.8,63.0,30.01,NW,312,0.0,0.0,89,0.00,,,0.00,weatherlink.com 1.10,2013-10-21 22:48:00,
2013-10-21 18:03:00,65.2,62.0,30.01,NW,312,0.0,0.0,90,0.00,,,0.00,weatherlink.com 1.10,2013-10-21 23:03:00,
2013-10-21 18:33:00,64.4,62.0,29.99,WNW,292,0.0,1.0,91,0.00,,,0.00,weatherlink.com 1.10,2013-10-21 23:33:00,
2013-10-21 18:48:00,64.4,62.0,30.00,SE,135,0.0,1.0,91,0.00,,,0.00,weatherlink.com 1.10,2013-10-21 23:48:00,
2013-10-21 19:03:00,63.9,62.0,30.00,SE,136,0.0,0.0,93,0.00,,,0.00,weatherlink.com 1.10,2013-10-22 00:03:00,
2013-10-21 19:18:00,63.6,62.0,30.02,SE,136,0.0,0.0,93,0.00,,,0.00,weatherlink.com 1.10,2013-10-22 00:18:00,
2013-10-21 19:33:00,63.5,62.0,30.02,SE,136,0.0,0.0,93,0.00,,,0.00,weatherlink.com 1.10,2013-10-22 00:33:00,
2013-10-21 19:48:00,63.3,62.0,30.02,SE,136,0.0,0.0,94,0.00,,,0.00,weatherlink.com 1.10,2013-10-22 00:48:00,
2013-10-21 20:03:00,63.1,62.0,30.01,SE,136,0.0,0.0,95,0.00,,,0.00,weatherlink.com 1.10,2013-10-22 01:03:00,
2013-10-21 20:18:00,62.8,61.0,30.01,SE,135,0.0,0.0,95,0.00,,,0.00,weatherlink.com 1.10,2013-10-22 01:18:00,
2013-10-21 20:33:00,62.5,61.0,29.99,SE,136,0.0,1.0,95,0.00,,,0.00,weatherlink.com 1.10,2013-10-22 01:33:00,
2013-10-21 20:48:00,62.6,61.0,29.99,East,98,0.0,1.0,95,0.00,,,0.00,weatherlink.com 1.10,2013-10-22 01:48:00,
2013-10-21 21:03:00,62.6,61.0,30.01,East,98,0.0,0.0,94,0.00,,,0.00,weatherlink.com 1.10,2013-10-22 02:03:00,
2013-10-21 21:18:00,62.5,61.0,30.00,East,95,0.0,0.0,93,0.00,,,0.00,weatherlink.com 1.10,2013-10-22 02:18:00,
2013-10-21 21:33:00,62.4,61.0,30.02,East,98,0.0,0.0,94,0.00,,,0.00,weatherlink.com 1.10,2013-10-22 02:33:00,
2013-10-21 21:48:00,62.3,61.0,30.01,East,98,0.0,0.0,94,0.00,,,0.00,weatherlink.com 1.10,2013-10-22 02:48:00,
2013-10-21 22:03:00,62.1,61.0,30.00,East,96,0.0,0.0,95,0.00,,,0.00,weatherlink.com 1.10,2013-10-22 03:03:00,
2013-10-21 22:18:00,62.0,61.0,29.99,SSW,201,0.0,0.0,95,0.00,,,0.00,weatherlink.com 1.10,2013-10-22 03:18:00,
2013-10-21 22:33:00,62.0,61.0,29.98,ENE,70,0.0,2.0,95,0.00,,,0.00,weatherlink.com 1.10,2013-10-22 03:33:00,
2013-10-21 22:48:00,62.6,61.0,29.99,ESE,103,0.0,2.0,93,0.00,,,0.00,weatherlink.com 1.10,2013-10-22 03:48:00,
2013-10-21 23:03:00,62.6,61.0,29.99,East,83,2.0,2.0,93,0.00,,,0.00,weatherlink.com 1.10,2013-10-22 04:03:00,
2013-10-21 23:18:00,62.8,61.0,29.99,ESE,113,0.0,2.0,93,0.00,,,0.00,weatherlink.com 1.10,2013-10-22 04:18:00,
2013-10-21 23:33:00,62.6,61.0,29.98,ENE,76,1.0,2.0,94,0.00,,,0.00,weatherlink.com 1.10,2013-10-22 04:33:00,
2013-10-21 23:48:00,62.6,61.0,29.98,East,99,1.0,2.0,94,0.00,,,0.00,weatherlink.com 1.10,2013-10-22 04:48:00,